Skip Navigation Links weather.gov 
NOAA logo-Select to go to the NOAA homepage NDBC Title GraphicClick to go to NDBC home page   Select to go to the NWS homepage
Home About Us Contact Us
 
 
    
    Station List

 Data Access
    Mobile Access
    Classic Maps
         Recent
         DART®
    Obs Search
    Ship Obs Report
    BuoyCAMs
    TAO
    DODS
    OceanSITES
    HF Radar
    OSMC
    Dial-A-Buoy
    RSS Feeds Image indicating link to RSS feed access page
    Web Widget
    Web Data Guide
    Maintenance Schedule
    Station Status Report

 Program Info
    TAO
    DART®
    IOOS®

 Publications
    NDBC PEA
    NDBC FONSI
    NDBC DQC Handbook

 Visitor Information
 
USA.gov is the U.S. government's official web portal to all federal, state and local government web resources and services.

Station FPST2 - 8772471 - Freeport SPIP, TX Image indicating link to RSS feed of recent meteorological observations for station FPST2

Owned and maintained by Texas Coastal Ocean Observing Network
C-MAN Station
28.936 N 95.294 W (28°56'9" N 95°17'39" W)

Site elevation: 0 m above mean sea level
Air temp height: 13 m above site elevation
Anemometer height: 15 m above site elevation
Barometer elevation: 13 m above mean sea level

Search And Rescue (SAR) Data

Meteorological Observations from Nearby Stations and Ships Image indicating link to RSS feed of recent meteorological observations near station FPST2

Regional HF Radar Surface Current Observations

Station FPST2
Large icon indicates selected station.
yellow diamond Stations with recent data
red diamond Stations with no data in last 8 hours
     (24 hours for tsunami stations)


Conditions at FPST2 as of
(6:48 pm CDT)
2348 GMT on 10/16/2021:
     

Click on the graph icon in the table below to see a time series plot of the last five days of that observation.

5-day plot - Wind Direction Wind Direction (WDIR): N ( 350 deg true )
5-day plot - Wind Speed Wind Speed (WSPD): 7 kts
5-day plot - Wind Gust Wind Gust (GST): 11 kts
5-day plot - Atmospheric Pressure Atmospheric Pressure (PRES): 30.18 in
5-day plot - Air Temperature Air Temperature (ATMP): 70.0 °F
5-day plot - Water Temperature Water Temperature (WTMP): 77.9 °F
5-day plot - Wind Speed at 10 Meters Wind Speed at 10 meters (WSPD10M): 8 kts
5-day plot - Wind Speed at 10 Meters Wind Speed at 20 meters (WSPD20M): 8 kts
5-day plot - Wind Speed, Wind Gust and Atmospheric Pressure Combined plot of Wind Speed, Gust, and Air Pressure
Previous observations
5-day plot - Wind Direction 5-day plot - Wind Speed 5-day plot - Wind Gust 5-day plot - Wave Height 5-day plot - Dominant Wave Period 5-day plot - Average Period 5-day plot - Mean Wave Direction 5-day plot - Atmospheric Pressure 5-day plot - Pressure Tendency 5-day plot - Air Temperature 5-day plot - Water Temperature 5-day plot - Dew Point 5-day plot - Salinity 5-day plot - Visibility 5-day plot - Tide (above MLLW)
MM DD TIME
(CDT)
WDIR WSPD
kts
GST
kts
WVHT
ft
DPD
sec
APD
sec
MWD PRES
in
PTDY
in
ATMP
°F
WTMP
°F
DEWP
°F
SAL
psu
VIS
nmi
TIDE
ft
1016 6:42 pm N 8 12----30.18- 70.2 78.1----
1016 6:36 pm N 8 11----30.18- 70.5 78.1----
1016 6:30 pm N 9 13----30.17- 70.9 78.1----
1016 6:24 pm N 11 16----30.17- 71.2 78.3----
1016 6:18 pm N 11 15----30.17- 71.4 78.4----
1016 6:12 pm N 10 14----30.17- 71.4 78.4----
1016 6:06 pm N 12 15----30.17- 71.8 78.6----
1016 6:00 pmNNW 12 17----30.16-0.01 72.1 78.6----
1016 5:54 pmNNW 12 18----30.16- 72.0 78.8----
1016 5:48 pmNNW 13 17----30.16- 72.3 79.0----
1016 5:42 pmNNW 13 18----30.16- 72.3 78.8----
1016 5:36 pm N 13 17----30.16- 72.5 79.0----
1016 5:30 pm N 13 18----30.16- 72.7 79.3----
1016 5:24 pmNNW 13 19----30.16- 72.7 79.3----
1016 5:18 pmNNW 14 18----30.16- 72.5 79.5----
1016 5:12 pm N 14 18----30.16- 72.3 79.5----
1016 5:06 pm N 12 18----30.16- 72.7 79.7----
1016 5:00 pm N 13 18----30.16-0.03 72.5 79.9----
1016 4:54 pmNNW 13 17----30.16- 72.5 79.9----
1016 4:48 pm N 13 17----30.16- 72.3 80.1----
1016 4:42 pmNNW 14 18----30.16- 72.5 80.1----
1016 4:36 pm N 14 20----30.16- 72.3 80.2----
1016 4:30 pm N 15 19----30.16- 72.1 80.2----
1016 4:24 pm N 14 18----30.17- 72.3 80.1----
1016 4:18 pmNNW 13 19----30.16- 72.5 80.2----
1016 4:12 pmNNW 14 18----30.16- 72.0 80.2----
1016 4:06 pm N 14 17----30.17- 72.5 80.2----
1016 4:00 pmNNW 13 18----30.16-0.04 72.5 80.4----
1016 3:54 pm N 12 19----30.17- 72.5 80.6----
1016 3:48 pm N 14 20----30.16- 71.8 80.6----
1016 3:42 pm N 15 19----30.17- 72.1 80.6----
1016 3:36 pm N 14 20----30.17- 71.8 80.6----
1016 3:30 pm N 14 21----30.17- 71.6 80.6----
1016 3:24 pm N 14 19----30.17- 71.6 80.6----
1016 3:18 pm N 16 22----30.17- 71.4 80.8----
1016 3:12 pmNNW 15 20----30.17- 71.6 80.6----
1016 3:06 pm N 15 20----30.17- 71.2 80.6----
1016 3:00 pmNNW 16 20----30.17-0.05 71.2 80.6----
1016 2:54 pmNNW 14 24----30.17- 71.4 80.6----
1016 2:48 pm N 14 17----30.17- 70.9 80.6----
1016 2:42 pm N 12 19----30.18- 71.6 80.6----
1016 2:36 pm N 15 19----30.18- 70.7 80.6----
1016 2:30 pmNNE 15 19----30.18- 70.5 80.6----
1016 2:24 pm N 16 18----30.18- 70.3 80.4----
1016 2:18 pm N 16 20----30.18- 70.2 80.6----
1016 2:12 pm N 17 21----30.18- 70.2 80.6----
1016 2:06 pmNNE 17 22----30.18- 70.2 80.4----
1016 2:00 pm N 15 23----30.19-0.03 70.0 80.4----
1016 1:54 pmNNE 15 21----30.19- 69.8 80.4----
1016 1:48 pm N 20 24----30.19- 69.4 80.2----
1016 1:42 pmNNE 18 24----30.19- 69.8 80.2----
1016 1:36 pm N 19 24----30.19- 69.3 80.2----
1016 1:30 pmNNE 19 24----30.19- 69.3 80.2----
1016 1:24 pm N 19 24----30.19- 69.6 80.2----
1016 1:18 pmNNE 20 23----30.19- 69.1 80.2----
1016 1:12 pm N 19 24----30.20- 69.3 80.2----
1016 1:06 pm N 18 21----30.20- 68.5 80.2----
1016 1:00 pm N 21 23----30.21-0.01 68.7 80.2----
101612:54 pm N 19 24----30.21- 68.5 80.2----
101612:48 pmNNE 18 23----30.21- 68.4 80.2----
101612:42 pmNNE 20 25----30.21- 68.2 80.2----
101612:36 pm N 18 25----30.22- 68.0 80.2----
101612:30 pmNNE 21 24----30.22- 68.0 80.2----
101612:24 pm N 21 25----30.22- 67.6 80.2----
101612:18 pmNNE 21 26----30.22- 67.3 80.2----
101612:12 pmNNE 21 23----30.22- 67.5 80.2----
101612:06 pmNNE 22 26----30.22- 67.1 80.2----
101612:00 pm N 18 26----30.22+0.01 67.8 80.4----
101611:54 amNNE 23 26----30.22- 66.9 80.6----
101611:48 amNNE 19 25----30.22- 67.3 80.4----
101611:42 am N 20 24----30.23- 67.1 80.4----
101611:36 am N 21 26----30.23- 66.7 80.4----
101611:30 amNNE 24 26----30.22- 66.6 80.4----
101611:24 am N 19 25----30.23- 67.1 80.4----
101611:18 amNNE 24 30----30.23- 66.9 80.6----
101611:12 amNNE 26 30----30.23- 66.9 80.6----
101611:06 am N 22 28----30.22- 66.4 80.6----
101611:00 amNNE 25 27----30.22+0.04 66.7 80.8----
101610:54 amNNE 25 29----30.22- 66.4 80.6----
101610:48 amNNE 25 30----30.22- 66.4 80.6----
101610:42 amNNE 25 31----30.22- 66.4 80.6----
101610:36 amNNE 25 30----30.22- 66.7 80.6----
101610:30 amNNE 28 31----30.22- 66.4 80.6----
101610:24 am N 24 29----30.22- 66.4 80.4----
101610:18 amNNE 28 32----30.22- 66.2 80.2----
101610:12 am N 22 30----30.22- 66.6 80.4----
101610:06 amNNE 27 32----30.22- 65.7 80.4----
101610:00 amNNE 25 30----30.22+0.05 66.2 80.6----
1016 9:54 am N 23 30----30.22- 65.7 80.4----
1016 9:48 am N 22 28----30.22- 65.8 80.4----
1016 9:42 am N 22 27----30.22- 65.5 80.6----
1016 9:36 am N 21 27----30.22- 65.3 80.4----
1016 9:30 am N 22 25----30.22- 65.3 80.4----
1016 9:24 am N 18 26----30.22- 65.3 80.2----
1016 9:18 am N 23 29----30.22- 64.9 80.4----
1016 9:12 am N 24 27----30.21- 64.8 80.4----
1016 9:06 am N 22 25----30.21- 64.6 80.4----
1016 9:00 am N 21 27----30.21+0.08 64.2 80.6----
1016 8:54 am N 19 23----30.21- 64.4 80.4----
1016 8:48 am N 17 20----30.21- 64.0 80.4----
1016 8:42 am N 18 23----30.20- 64.4 80.4----
1016 8:36 am N 15 21----30.20- 64.0 80.4----
1016 8:30 am N 16 21----30.20- 63.9 80.6----
1016 8:24 am N 15 21----30.19- 64.0 80.4----
1016 8:18 am N 16 23----30.20- 63.7 80.4----
1016 8:12 am N 16 20----30.19- 63.5 80.4----
1016 8:06 am N 16 21----30.19- 63.5 80.4----
1016 8:00 am N 16 22----30.19+0.08 63.3 80.2----
1016 7:54 am N 15 22----30.18- 63.3 80.4----
1016 7:48 am N 17 21----30.18- 63.3 80.4----
1016 7:42 am N 16 21----30.18- 63.3 80.4----
1016 7:36 am N 17 22----30.18- 63.5 80.4----
1016 7:30 am N 17 22----30.18- 63.7 80.6----
1016 7:24 am N 14 20----30.17- 63.7 80.6----
1016 7:18 am N 15 21----30.17- 63.9 80.6----
1016 7:12 am N 15 20----30.17- 64.0 81.0----
1016 7:06 am N 14 18----30.17- 64.0 81.0----
1016 7:00 am N 14 20----30.16+0.08 64.2 81.0----
1016 6:54 am N 15 21----30.16- 64.2 80.8----
1016 6:48 am N 16 22----30.16- 64.4 80.8----
1016 6:42 am N 15 21----30.16- 64.8 80.8----
1016 6:36 am N 16 20----30.15- 64.8 81.0----
1016 6:30 am N 16 22----30.15- 64.8 81.0----
1016 6:24 am N 17 24----30.15- 64.9 81.1----
1016 6:18 am N 18 24----30.14- 65.1 81.1----
1016 6:12 am N 16 22----30.14- 65.3 81.1----
1016 6:06 am N 16 24----30.14- 65.5 81.1----
1016 6:00 am N 19 22----30.13+0.06 65.7 81.3----
1016 5:54 am N 19 24----30.13- 65.8 81.3----
1016 5:48 am N 17 23----30.13- 65.8 81.3----
1016 5:42 am N 20 26----30.12- 65.8 81.3----
1016 5:36 am N 18 25----30.12- 66.2 81.3----
1016 5:30 am N 20 25----30.12- 66.2 81.3----
1016 5:24 am N 16 25----30.12- 66.2 81.3----
1016 5:18 am N 18 26----30.11- 66.4 81.3----
1016 5:12 am N 17 24----30.11- 66.6 81.3----
1016 5:06 am N 16 22----30.11- 66.7 81.3----
1016 5:00 am N 18 25----30.10+0.05 66.9 81.3----
1016 4:54 am N 20 25----30.10- 67.1 81.3----
1016 4:48 am N 20 26----30.09- 67.1 81.5----
1016 4:42 am N 20 25----30.09- 67.5 81.5----
1016 4:36 am N 18 23----30.09- 67.6 81.3----
1016 4:30 am N 19 23----30.09- 67.6 81.3----
1016 4:24 am N 17 22----30.09- 67.8 81.5----
1016 4:18 am N 16 23----30.09- 68.2 81.5----
1016 4:12 am N 18 23----30.09- 68.2 81.5----
1016 4:06 am N 17 20----30.09- 68.5 81.7----
1016 4:00 am N 17 24----30.09+0.04 68.7 81.7----
1016 3:54 am N 19 27----30.08- 69.1 81.7----
1016 3:48 am N 22 27----30.08- 69.3 81.7----
1016 3:42 am N 22 27----30.08- 69.4 81.9----
1016 3:36 am N 21 30----30.07- 69.6 81.9----
1016 3:30 am N 22 31----30.07- 70.0 81.9----
1016 3:24 am N 25 31----30.07- 70.2 81.9----
1016 3:18 am N 20 24----30.07- 70.0 81.9----
1016 3:12 am N 15 19----30.07- 69.6 81.9----
1016 3:06 am N 17 22----30.07- 70.0 81.9----
1016 3:00 am N 14 21----30.07+0.04 70.0 82.0----
1016 2:54 am N 14 20----30.07- 70.2 82.0----
1016 2:48 amNNW 17 21----30.07- 70.3 82.0----
1016 2:42 amNNW 15 21----30.07- 70.3 82.0----
1016 2:36 amNNW 15 19----30.07- 70.5 82.0----
1016 2:30 amNNW 15 18----30.06- 70.7 82.0----
1016 2:24 am N 14 20----30.06- 70.9 82.2----
1016 2:18 am N 16 21----30.06- 70.9 82.2----
1016 2:12 am N 15 19----30.06- 71.1 82.2----
1016 2:06 amNNW 16 21----30.06- 71.2 82.2----
1016 2:00 am N 15 23----30.06+0.04 71.4 82.4----
1016 1:54 amNNW 17 23----30.05- 71.6 82.4----
1016 1:48 am N 16 20----30.05- 71.8 82.2----
1016 1:42 am N 17 21----30.05- 72.0 82.4----
1016 1:36 am N 15 25----30.05- 72.1 82.4----
1016 1:30 am N 16 23----30.05- 72.3 82.4----
1016 1:24 amNNW 17 24----30.05- 72.5 82.4----
1016 1:18 amNNW 18 23----30.05- 72.7 82.4----
1016 1:12 amNNW 18 23----30.04- 72.9 82.4----
1016 1:06 amNNW 16 24----30.05- 73.0 82.4----
1016 1:00 amNNW 18 25----30.05+0.06 73.2 82.4----
101612:54 amNNW 19 26----30.04- 73.6 82.4----
101612:48 amNNW 18 24----30.04- 73.9 82.4----
101612:42 amNNW 22 29----30.04- 74.3 82.6----
101612:36 amNNW 18 23----30.03- 74.7 82.4----
101612:30 amNNW 18 25----30.03- 74.8 82.4----
101612:24 amNNW 19 23----30.04- 75.2 82.6----
101612:18 amNNW 16 22----30.04- 75.4 82.6----
101612:12 amNNW 16 24----30.04- 75.7 82.6----
101612:06 amNNW 18 26----30.03- 76.3 82.6----
101612:00 amNNW 16 22----30.03+0.09 76.5 82.6----
101511:54 pmNNW 14 22----30.03- 76.6 82.6----
101511:48 pmNNW 18 24----30.03- 77.0 82.6----
101511:42 pmNNW 14 19----30.02- 77.0 82.8----
101511:36 pmNNW 12 17----30.02- 76.8 82.8----
101511:30 pm NW 14 17----30.02- 77.0 82.8----
101511:24 pmNNW 13 17----30.02- 77.5 82.8----
101511:18 pmNNW 12 19----30.02- 77.5 82.8----
101511:12 pmNNW 14 19----30.01- 78.1 82.6----
101511:06 pmNNW 16 21----30.01- 78.1 82.6----
101511:00 pmNNW 16 22----30.01+0.09 78.3 82.6----
101510:54 pmNNW 13 18----30.01- 78.1 82.8----
101510:48 pmNNW 13 18----30.01- 77.9 82.6----
101510:42 pm NW 12 15----30.00- 77.5 82.6----
101510:36 pm NW 13 17----30.00- 77.5 82.6----
101510:30 pm NW 12 16----30.00- 77.5 82.8----
101510:24 pm NW 11 15----30.00- 77.7 82.8----
101510:18 pm NW 12 15----30.00- 77.9 82.8----
101510:12 pm NW 14 16----29.99- 78.1 82.8----
101510:06 pmWNW 14 20----29.99- 78.1 82.8----
101510:00 pmWNW 14 19----29.98+0.07 78.8 82.8----
1015 9:54 pmWNW 12 15----29.98- 78.6 82.8----
1015 9:48 pmWNW 9 11----29.98- 78.3 82.8----
1015 9:42 pmWNW 10 11----29.97- 78.3 82.8----
1015 9:36 pmWNW 10 13----29.96- 78.6 82.9----
1015 9:30 pm W 8 11----29.96- 78.4 82.9----
1015 9:24 pm W 8 11----29.96- 78.1 82.8----
1015 9:18 pm W 11 15----29.95- 78.6 82.8----
1015 9:12 pm W 7 8----29.94- 78.6 82.8----
1015 9:06 pm W 5 5----29.94- 78.4 82.8----
1015 9:00 pm W 3 4----29.93+0.03 77.9 82.9----
1015 8:54 pmWSW 3 4----29.93- 77.5 82.9----
1015 8:48 pmWSW 4 5----29.93- 77.5 82.9----
1015 8:42 pm W 5 5----29.93- 77.7 82.8----
1015 8:36 pmWSW 5 5----29.93- 77.7 82.8----
1015 8:30 pmWSW 4 5----29.93- 78.1 82.8----
1015 8:24 pm W 3 5----29.93- 78.1 82.8----
1015 8:18 pmWSW 4 5----29.92- 78.4 82.8----
1015 8:12 pmWSW 3 5----29.93- 78.4 82.8----
1015 8:06 pmWSW 4 5----29.92- 78.6 82.9----
1015 8:00 pm-------29.92+0.06 78.1 82.8----
1015 7:54 pm-------29.92- 78.3 82.8----
1015 7:48 pm SW 4 5----29.92- 78.6 82.9----
1015 7:42 pmWSW 3 5----29.92- 78.3 82.9----
1015 7:36 pmWSW 3 7----29.91- 78.1 82.9----
1015 7:30 pm W 5 6----29.91- 77.4 82.9----
1015 7:24 pmWSW 5 6----29.91- 77.2 82.9----
1015 7:18 pmWSW 5 7----29.91- 77.4 82.9----
1015 7:12 pm W 5 6----29.91- 78.4 82.9----
1015 7:06 pm W 5 6----29.91- 78.8 82.9----
1015 7:00 pm W 5 7----29.91+0.04 77.9 82.9----
1015 6:54 pm W 6 7----29.91- 78.3 82.9----

Description of Measurements

Links which are specific to this station are listed below:

Real Time Data in tabular form for the last forty-five days.

Historical Data & Climatic Summaries for quality controlled data for the current month, previous months, and previous years.